Hourly Weather Roundup
Issued by NWS Central Illinois

Home | Current Version | Previous Version | Text Only | Print | Product List | Glossary On
Versions: 1 2 3 4 5 6 7 8 9 10 11 12 13 14 15 16 17 18 19 20 21 22 23 24 25 26 27 28 29 30 31 32 33 34 35 36 37 38 39 40 41 42 43 44 45 46 47 48 49 50
313
NZUS43 KILX 300810
HWRILX

AREA WEATHER ROUNDUP
NATIONAL WEATHER SERVICE, LINCOLN IL
300 AM CDT FRI SEP 30 2016


CITY           SKY/WX    TMP DP  RH WIND       PRES   REMARKS
BLOOMINGTON    CLOUDY    60  58  92 N12       30.13F
CHAMPAIGN      RAIN      60  58  92 N9        30.10F FOG
DANVILLE       LGT RAIN  58  58  99 N8        30.06F
DECATUR        CLOUDY    60  57  89 N8        30.12S
EFFINGHAM      CLOUDY    60  60 100 NW6       30.09F
FLORA          CLOUDY    59  58  96 NW5       30.08S FOG
GALESBURG      MOCLDY    57  53  87 NW7       30.19F
JACKSONVILLE   CLOUDY    57  56  94 NW8       30.16S
LACON          LGT RAIN  59  56  92 N5        30.17R
LAWRENCEVILLE  LGT RAIN  57  54  89 NW6       30.05F
LITCHFIELD     CLOUDY    58  56  92 N9        30.13S FOG
$$


CITY           SKY/WX    TMP DP  RH WIND       PRES   REMARKS
LINCOLN        CLOUDY    60  59  99 N5        30.14S
MACOMB         CLEAR     56  53  91 N9        30.21S
MATTOON        LGT RAIN  59  57  93 N8        30.08F FOG
MT CARMEL AP   MOCLDY    57  55  92 NW7       30.05F
OLNEY-NOBLE AP MOCLDY    55  55 100 NW6       30.07F FOG
PARIS          RAIN      59  59 100 CALM      30.08F
PEORIA         CLOUDY    60  58  92 VRB6      30.16S
PONTIAC        LGT RAIN  61  61 100 N8        30.14F
RANTOUL        DRIZZLE   61  60  97 N9        30.10F
ROBINSON       CLOUDY    56  55  97 NW7       30.07F
SPRINGFIELD    PTCLDY    59  57  93 N7        30.13F FOG
TAYLORVILLE    CLOUDY    55  55  99 N6        30.13S FOG
$$

...REGIONAL REPORTS...


CITY           SKY/WX    TMP DP  RH WIND       PRES   REMARKS
CHICAGO O`HARE CLOUDY    60  58  92 NE10      30.16R
KANKAKEE       CLOUDY    59  58  97 NE5       30.13S
MOLINE         CLOUDY    60  52  74 N9        30.20F
MOUNT STERLING PTCLDY    58  54  86 N9        30.17F
MOUNT VERNON   PTCLDY    57  52  82 CALM      30.08F
PITTSFIELD     CLOUDY    61  56  83 N7        30.18S
QUINCY         CLOUDY    58  55  90 N7        30.19F
ROCKFORD       DRIZZLE   61  56  83 NE13G23   30.22S
$$


CITY           SKY/WX    TMP DP  RH WIND       PRES   REMARKS
BURLINGTON     CLEAR     57  53  86 N10       30.20F
CEDAR RAPIDS   CLEAR     52  50  93 N9        30.25F
DES MOINES     CLEAR     56  50  80 NE7       30.29S
KIRKSVILLE     CLEAR     54  49  83 NW5       30.24S
OTTUMWA        CLEAR     54  48  80 N8        30.25F
ST LOUIS       CLOUDY    62  56  80 N10       30.14F
$$


CITY           SKY/WX    TMP DP  RH WIND       PRES   REMARKS
TERRE HAUTE    CLOUDY    59  57  93 N6        30.06F
EVANSVILLE     PTCLDY    56  52  86 W3        30.04F
INDIANAPOLIS   LGT RAIN  60  58  92 NE7       30.02F
LAFAYETTE      CLOUDY    59  59 100 NE9       30.07F
MADISON        CLOUDY    58  54  86 N10       30.25F
MILWAUKEE      CLOUDY    60  55  83 NE10      30.22F
$$






USA.gov is the U.S. government's official web portal to all federal, state and local government web resources and services.